• MPC Preparation (Info)

  • MPEC 2000-A34 : 2000 AZ93

    The following Minor Planet Electronic Circular may be linked-to from your own Web pages, but must not otherwise be redistributed electronically.

    A form allowing access to any MPEC is at the bottom of this page.


    Read MPEC 2000-A33 Read MPEC 2000-A35


    M.P.E.C. 2000-A34                                Issued 2000 Jan.  9, 20:52 UT
    
         The Minor Planet Electronic Circulars contain information on unusual
             minor planets and routine data on comets.  They are published
       on behalf of Commission 20 of the International Astronomical Union by the
              Minor Planet Center, Smithsonian Astrophysical Observatory,
                              Cambridge, MA 02138, U.S.A.
    
                 Prepared using the Tamkin Foundation Computer Network
    
                 BMARSDEN@CFA.HARVARD.EDU or GWILLIAMS@CFA.HARVARD.EDU
              URL http://cfa-www.harvard.edu/iau/mpc.html  ISSN 1523-6714
    
                                       2000 AZ93
    
    Observations:
         K00A93Z* C2000 01 07.08168 01 49 07.05 +07 58 52.3          18.6        704
         K00A93Z  C2000 01 07.09649 01 49 09.93 +07 58 17.6          18.9        704
         K00A93Z  C2000 01 07.11128 01 49 12.91 +07 57 43.5          19.2        704
         K00A93Z  C2000 01 07.12606 01 49 15.88 +07 57 08.9          18.6        704
         K00A93Z  C2000 01 07.14085 01 49 18.87 +07 56 35.8          19.0        704
         K00A93Z  C2000 01 08.07096 01 52 43.91 +07 22 49.6          18.4        704
         K00A93Z  C2000 01 08.07106 01 52 43.92 +07 22 49.3          18.4        704
         K00A93Z  C2000 01 08.11632 01 52 52.29 +07 21 14.6          18.9        704
         K00A93Z  C2000 01 08.11641 01 52 52.31 +07 21 13.6          18.7        704
         K00A93Z  C2000 01 08.13140 01 52 55.16 +07 20 43.0          18.9        704
         K00A93Z  C2000 01 08.13149 01 52 55.09 +07 20 42.6          19.2        704
         K00A93Z  C2000 01 08.44135 01 54 00.12 +07 10 03.6          18.4 V      402
         K00A93Z  C2000 01 08.44262 01 54 00.32 +07 10 01.0                      402
         K00A93Z  C2000 01 08.44514 01 54 00.81 +07 09 54.8                      402
         K00A93Z  C2000 01 08.44647 01 54 01.06 +07 09 52.8                      402
         K00A93Z  C2000 01 08.78414 01 55 10.27 +06 58 22.8          17.8 R      540
         K00A93Z  C2000 01 08.78671 01 55 10.78 +06 58 18.0                      540
         K00A93Z  C2000 01 08.78918 01 55 11.17 +06 58 12.9                      540
         K00A93Z  C2000 01 08.79167 01 55 11.67 +06 58 08.4                      540
         K00A93Z  C2000 01 08.79412 01 55 12.08 +06 58 03.9                      540
         K00A93Z  C2000 01 09.07031 01 56 08.43 +06 49 23.3                      711
         K00A93Z  C2000 01 09.07540 01 56 09.23 +06 49 13.6                      711
         K00A93Z  C2000 01 09.08042 01 56 10.00 +06 49 04.1                      711
         K00A93Z  C2000 01 09.21428 01 56 33.84 +06 44 43.5                      651
         K00A93Z  C2000 01 09.21620 01 56 34.20 +06 44 40.3                      651
         K00A93Z  C2000 01 09.21823 01 56 34.57 +06 44 36.1          18.9 V      651
         K00A93Z  C2000 01 09.69659 01 58 11.06 +06 29 27.8          17.2 R      046
         K00A93Z  C2000 01 09.69874 01 58 11.40 +06 29 24.1                      046
         K00A93Z  C2000 01 09.69981 01 58 11.58 +06 29 23.2                      046
         K00A93Z  C2000 01 09.70109 01 58 11.84 +06 29 20.8                      046
         K00A93Z  C2000 01 09.70241 01 58 12.05 +06 29 17.4                      046
         K00A93Z  C2000 01 09.72662 01 58 16.16 +06 28 34.1          18.2 R      540
         K00A93Z  C2000 01 09.72917 01 58 16.64 +06 28 29.1                      540
         K00A93Z  C2000 01 09.73148 01 58 17.05 +06 28 25.3                      540
    
    Observer details:
    046 Klet.  Observers J. Ticha, M. Tichy.  0.57-m f/5.2 reflector + CCD.
    402 Dynic Astronomical Observatory.  Observer A. Sugie.  0.60-m f/3.7 reflector
        + CCD.
    540 Linz.  Observers E. Meyer, E. Obermair.  0.6-m f/3.0 reflector + CCD.
    651 Grasslands Observatory, Tucson.  Observer J. E. McGaha.  0.62-m f/5.1
        reflector + CCD.
    704 Lincoln Laboratory ETS, New Mexico.  Observers M. Blythe, F. Shelly,
        M. Bezpalko, M. Elowitz, R. Huber.  Measurers J. Stuart, H. Viggh,
        R. Sayer, J. B. Evans.  1.0-m f/2.15 reflector + CCD.
    711 McDonald Observatory.  Observer J. G. Ries.  0.76-m reflector + CCD.
    
    Orbital elements:
    2000 AZ93                                                            PHA 0.010D
    Epoch 1999 Dec. 28.0 TT = JDT 2451540.5                 Williams
    M 153.42579              (2000.0)            P               Q
    n   1.52783017     Peri.    7.89270     +0.26571409     +0.95251721
    a   0.7465966      Node   277.60824     -0.89249196     +0.18473621
    e   0.3604963      Incl.    8.62720     -0.36449161     +0.24204029
    P   0.65           H   20.4           G   0.15
    From 34 observations 2000 Jan. 7-9.
    
    Ephemeris:
    2000 AZ93                a,e,i = 0.75, 0.36, 9                   q = 0.4775
    Date    TT    R. A. (2000) Decl.     Delta      r     Elong.  Phase     V
    2000 01 07    01 48.81   +08 02.6    0.112    1.013   102.1    71.6    18.2
    2000 01 12    02 05.02   +05 26.0    0.135    1.015    99.9    72.6    18.6
    2000 01 17    02 17.38   +03 39.5    0.158    1.015    97.1    74.0    19.0
    2000 01 22    02 27.41   +02 23.6    0.181    1.013    94.0    75.8    19.4
    2000 01 27    02 35.87   +01 27.4    0.202    1.008    90.7    77.7    19.7
    2000 02 01    02 43.21   +00 44.1    0.222    1.000    87.3    79.9    19.9
    2000 02 06    02 49.67   +00 09.4    0.241    0.989    83.8    82.2    20.2
    2000 02 11    02 55.32   -00 20.1    0.259    0.976    80.1    84.8    20.4
    2000 02 16    03 00.09   -00 46.9    0.274    0.961    76.3    87.6    20.6
    2000 02 21    03 03.87   -01 12.9    0.287    0.943    72.4    90.7    20.8
    2000 02 26    03 06.46   -01 39.2    0.298    0.922    68.2    94.3    21.0
    2000 03 02    03 07.65   -02 06.6    0.308    0.898    63.7    98.4    21.2
    2000 03 07    03 07.12   -02 35.5    0.315    0.872    58.9   103.1    21.4
    2000 03 12    03 04.46   -03 05.6    0.320    0.844    53.6   108.6    21.6
    2000 03 17    02 59.18   -03 36.1    0.325    0.813    47.8   115.0    22.0
    
    Gareth V. Williams           (C) Copyright 2000 MPC           M.P.E.C. 2000-A34
    

    Read MPEC 2000-A33 Read MPEC 2000-A35


    MPEC number:

    Enter an MPEC number in one of the following forms:

    • 1997-B01 (the full form)
    • J97B01 (the packed version of the full form)
    • B01 (the abbreviated form)